PDT,Max TemperatureF,Mean TemperatureF,Min TemperatureF,Max Dew PointF,MeanDew PointF,Min DewpointF,Max Humidity, Mean Humidity, Min Humidity, Max Sea Level PressureIn, Mean Sea Level PressureIn, Min Sea Level PressureIn, Max VisibilityMiles, Mean VisibilityMiles, Min VisibilityMiles, Max Wind SpeedMPH, Mean Wind SpeedMPH, Max Gust SpeedMPH,PrecipitationIn, CloudCover, Events, WindDirDegrees
2013-3-1,60,56,53,50,48,47,88,76,64,30.37,30.33,30.28,10,9,4,16,10,25,0.04,8,Rain,179
2013-3-2,57,50,42,48,43,36,83,76,64,30.28,30.17,30.08,10,9,3,14,8,25,0.21,7,Rain,141
2013-3-3,50,42,35,36,32,26,89,68,39,30.31,30.27,30.21,10,10,10,8,4,,0.00,2,,112
2013-3-4,57,45,33,31,27,22,85,55,27,30.31,30.14,29.93,10,10,10,10,2,,0.00,1,,25
2013-3-5,50,46,42,39,34,27,80,63,51,29.92,29.82,29.73,10,10,10,8,2,,0.00,7,,306
2013-3-6,46,44,42,41,38,36,89,80,68,29.90,29.74,29.59,10,9,4,12,4,,0.61,8,Rain,116
2013-3-7,53,48,42,42,39,35,89,75,52,30.09,30.03,29.92,10,9,6,8,5,,0.26,6,Rain,149
2013-3-8,53,45,37,38,36,34,93,76,50,30.25,30.13,30.09,10,8,0,9,2,,0.00,4,Fog,344
2013-3-9,55,44,34,39,35,31,93,73,45,30.50,30.40,30.27,10,9,1,7,2,,0.00,1,Fog,153
2013-3-10,48,44,39,41,38,33,83,77,71,30.50,30.46,30.44,10,10,9,9,5,,0.01,7,Rain,135
2013-3-11,53,48,44,45,41,39,86,76,62,30.45,30.34,30.17,10,10,6,7,1,,0.03,7,Rain,147
2013-3-12,57,54,50,52,47,44,88,80,62,30.16,30.11,30.09,10,8,3,15,11,26,0.01,8,Rain,173
2013-3-13,54,53,51,50,48,46,89,83,77,30.20,30.15,30.10,10,10,7,15,9,22,0.15,7,Rain,167
2013-3-14,55,52,48,48,46,41,93,80,62,30.16,30.09,30.04,10,8,2,12,5,17,0.05,7,Rain,157
2013-3-15,60,54,48,48,46,44,93,78,62,30.21,30.18,30.15,10,10,5,12,8,18,0.00,7,,183
2013-3-16,52,46,42,45,40,32,82,74,59,30.14,30.03,29.90,10,10,7,18,9,28,0.04,6,Rain,189
2013-3-17,50,44,39,34,33,31,81,68,50,30.20,30.13,30.00,10,10,10,13,7,20,0.00,6,,182
2013-3-18,54,48,42,37,34,27,76,64,37,30.25,30.19,30.14,10,10,5,20,10,31,0.00,6,Rain,169
2013-3-19,55,46,39,41,35,30,86,68,40,30.22,29.96,29.61,10,9,6,13,3,,0.37,5,Rain,102
2013-3-20,53,47,41,48,39,30,90,74,62,30.03,29.65,29.40,10,9,5,21,11,37,0.72,6,Rain,183
2013-3-21,50,42,37,37,33,30,89,73,56,30.23,30.15,30.04,10,10,6,9,7,21,0.10,7,Rain,175
2013-3-22,48,42,36,34,30,23,89,66,41,30.39,30.31,30.23,10,10,10,13,5,,0.01,4,Rain,104
2013-3-23,52,42,34,30,26,21,76,57,33,30.41,30.37,30.31,10,10,10,7,3,,0.00,1,,132
2013-3-24,55,44,33,33,29,26,82,58,34,30.31,30.23,30.13,10,10,10,9,2,,0.00,4,,318
2013-3-25,62,49,37,35,29,26,70,46,26,30.13,30.03,29.94,10,10,10,9,2,,0.00,4,,313
2013-3-26,62,54,48,39,36,32,69,53,36,30.03,29.99,29.96,10,10,10,6,2,,0.00,6,,306
2013-3-27,57,52,48,45,40,34,83,64,50,30.00,29.97,29.95,10,10,9,6,2,,0.01,6,Rain,345
2013-3-28,63,54,45,47,44,41,89,73,50,30.15,30.07,30.00,10,10,6,7,1,,0.06,6,Rain,154
2013-3-29,64,55,46,45,43,39,83,65,39,30.26,30.22,30.17,10,10,10,7,3,,0.01,2,Rain,331
2013-3-30,66,56,45,44,43,41,90,64,45,30.26,30.19,30.08,10,10,4,10,3,16,0.00,0,,325
2013-3-31,69,56,45,42,40,37,82,54,36,30.08,30.00,29.92,10,10,10,10,2,,0.00,0,,311